Torna al catalogo

FENGYUN 1C DEB

AttivoPO
NORAD 29794·DEBRIS·🇨🇳 China

Lanciato May 10, 1999 da Taiyuan Satellite Launch Center

Loading…

Prossimi Passaggi (prossime 24 ore)

TLE

AggiornatoSource: Space-Track

Epoca: Sep 14, 2026, 08:33 UTC

1 29794U 99025CL  26257.35694190  .00000521  00000-0  28663-3 0  9991
2 29794  98.2332  37.0522 0154659 329.0128  58.2354 14.09630570  7193

Traccia FENGYUN 1C DEB in tempo reale con AllMySat

Download on the App Store